When you browse on this site, cookies collect data to enhance your experience and personalize the content and advertising you see.
Visit our Privacy Policy to learn more. By continuing to use the site, you agree to this use of cookies and data.
  • In Portugal
  • List of Countries
  • For 7 days
  • Water Temperature
  • Satellite Maps
  • Weather Map
  • Weather Widgets
  • user-avatar
    Login

    Hourly Weather Bansko

    Today, 16 February, Saturday

    Time Temperature Precipitation Wind Pressure Humidity
    00:00 -2°C° 0 mm 2 mps 729 mmHg 81%
    01:00 -2°C° 0 mm 2 mps 729 mmHg 81%
    02:00 -2°C° 0 mm 2 mps 729 mmHg 81%
    03:00 -2°C° 0 mm 2 mps 729 mmHg 80%
    04:00 -2°C° 0 mm 2 mps 729 mmHg 80%
    05:00 -2°C° 0 mm 2 mps 729 mmHg 79%
    06:00 -2°C° 0 mm 2 mps 729 mmHg 77%
    07:00 -1°C° 0 mm 2 mps 729 mmHg 75%
    08:00 -1°C° 0 mm 2 mps 729 mmHg 73%
    09:00 +2°C° 0 mm 2 mps 729 mmHg 66%
    10:00 +4°C° 0 mm 2 mps 730 mmHg 58%
    11:00 +5°C° 0 mm 3 mps 730 mmHg 51%
    12:00 +7°C° 0 mm 3 mps 729 mmHg 49%
    13:00 +8°C° 0 mm 3 mps 729 mmHg 47%
    14:00 +9°C° 0 mm 3 mps 729 mmHg 45%
    15:00 +8°C° 0 mm 3 mps 729 mmHg 48%
    16:00 +8°C° 0 mm 2 mps 728 mmHg 51%
    17:00 +7°C° 0 mm 2 mps 728 mmHg 54%
    18:00 +6°C° 0 mm 2 mps 728 mmHg 57%
    19:00 +4°C° 0 mm 2 mps 728 mmHg 61%
    20:00 +2°C° 0 mm 2 mps 729 mmHg 64%
    21:00 +2°C° 0 mm 2 mps 729 mmHg 63%
    22:00 +2°C° 0 mm 2 mps 729 mmHg 61%
    23:00 +3°C° 0 mm 1 mps 729 mmHg 60%

    Tomorrow, 17 February, Sunday

    Time Temperature Precipitation Wind Pressure Humidity
    00:00 +3°C° 0 mm 1 mps 729 mmHg 58%
    01:00 +3°C° 0 mm 1 mps 729 mmHg 57%
    02:00 +3°C° 0 mm 1 mps 729 mmHg 56%
    03:00 +3°C° 0 mm 1 mps 729 mmHg 55%
    04:00 +3°C° 0 mm 1 mps 728 mmHg 54%
    05:00 +3°C° 0 mm 1 mps 728 mmHg 54%
    06:00 +4°C° 0 mm 1 mps 728 mmHg 53%
    07:00 +4°C° 0 mm 1 mps 728 mmHg 52%
    08:00 +4°C° 0 mm 1 mps 728 mmHg 52%
    09:00 +7°C° 0 mm 1 mps 728 mmHg 48%
    10:00 +9°C° 0 mm 1 mps 728 mmHg 44%
    11:00 +11°C° 0 mm 1 mps 728 mmHg 40%
    12:00 +12°C° 0 mm 1 mps 728 mmHg 40%
    13:00 +13°C° 0 mm 1 mps 727 mmHg 40%
    14:00 +14°C° 0 mm 2 mps 727 mmHg 40%
    15:00 +13°C° 0 mm 1 mps 727 mmHg 43%
    16:00 +12°C° 0 mm 1 mps 726 mmHg 47%
    17:00 +12°C° 0 mm 1 mps 726 mmHg 51%
    18:00 +10°C° 0 mm 1 mps 726 mmHg 54%
    19:00 +9°C° 0 mm 1 mps 726 mmHg 56%
    20:00 +7°C° 0 mm 1 mps 726 mmHg 59%
    21:00 +7°C° 0 mm 1 mps 726 mmHg 59%
    22:00 +6°C° 0 mm 1 mps 726 mmHg 60%
    23:00 +6°C° 0 mm 1 mps 726 mmHg 60%

    Day after tomorrow, 18 February, Monday

    Time Temperature Precipitation Wind Pressure Humidity
    00:00 +6°C° 0 mm 1 mps 726 mmHg 60%
    01:00 +6°C° 0 mm 1 mps 726 mmHg 59%
    02:00 +6°C° 0 mm 1 mps 726 mmHg 59%
    03:00 +5°C° 0 mm 1 mps 726 mmHg 58%
    04:00 +5°C° 0 mm 1 mps 725 mmHg 58%
    05:00 +5°C° 0 mm 1 mps 725 mmHg 57%
    06:00 +5°C° 0 mm 1 mps 725 mmHg 57%
    07:00 +6°C° 0 mm 1 mps 726 mmHg 56%
    08:00 +6°C° 0 mm 1 mps 726 mmHg 55%
    09:00 +8°C° 0 mm 1 mps 726 mmHg 51%
    10:00 +11°C° 0 mm 1 mps 726 mmHg 46%
    11:00 +12°C° 0 mm 0 mps 726 mmHg 41%
    12:00 +13°C° 0 mm 0 mps 726 mmHg 40%
    13:00 +14°C° 0 mm 1 mps 726 mmHg 39%
    14:00 +15°C° 0 mm 1 mps 725 mmHg 38%
    15:00 +14°C° 0 mm 1 mps 725 mmHg 41%
    16:00 +13°C° 0 mm 0 mps 725 mmHg 45%
    17:00 +12°C° 0 mm 0 mps 724 mmHg 48%
    18:00 +11°C° 0 mm 0 mps 725 mmHg 51%
    19:00 +10°C° 0 mm 1 mps 725 mmHg 54%
    20:00 +8°C° 0 mm 1 mps 725 mmHg 57%
    21:00 +8°C° 0 mm 1 mps 725 mmHg 58%
    22:00 +7°C° 0 mm 1 mps 725 mmHg 60%
    23:00 +7°C° 0 mm 1 mps 725 mmHg 61%

    19 February, Tuesday

    Time Temperature Precipitation Wind Pressure Humidity
    00:00 +7°C° 0 mm 1 mps 726 mmHg 62%
    01:00 +7°C° 0 mm 1 mps 726 mmHg 63%
    02:00 +6°C° 0 mm 1 mps 726 mmHg 64%
    03:00 +6°C° 0 mm 1 mps 725 mmHg 64%
    04:00 +6°C° 0 mm 1 mps 725 mmHg 64%
    05:00 +6°C° 0 mm 1 mps 725 mmHg 65%
    06:00 +6°C° 0 mm 1 mps 725 mmHg 64%
    07:00 +6°C° 0 mm 1 mps 726 mmHg 63%
    08:00 +6°C° 0 mm 1 mps 726 mmHg 62%
    09:00 +8°C° 0 mm 1 mps 726 mmHg 56%
    10:00 +10°C° 0 mm 1 mps 726 mmHg 51%
    11:00 +13°C° 0 mm 1 mps 726 mmHg 45%
    12:00 +13°C° 0 mm 1 mps 726 mmHg 43%
    13:00 +14°C° 0 mm 2 mps 725 mmHg 42%
    14:00 +14°C° 0 mm 2 mps 725 mmHg 40%
    15:00 +14°C° 0 mm 2 mps 725 mmHg 43%
    16:00 +14°C° 0 mm 1 mps 725 mmHg 46%
    17:00 +13°C° 0 mm 1 mps 724 mmHg 49%
    18:00 +11°C° 0 mm 1 mps 724 mmHg 54%
    19:00 +10°C° 0 mm 1 mps 725 mmHg 59%
    20:00 +8°C° 0 mm 1 mps 725 mmHg 64%
    21:00 +8°C° 0 mm 1 mps 725 mmHg 65%
    22:00 +7°C° 0 mm 1 mps 725 mmHg 67%
    23:00 +7°C° 0 mm 1 mps 725 mmHg 68%

    20 February, Wednesday

    Time Temperature Precipitation Wind Pressure Humidity
    00:00 +6°C° 0 mm 1 mps 725 mmHg 68%
    01:00 +6°C° 0 mm 1 mps 725 mmHg 69%
    02:00 +6°C° 0 mm 1 mps 725 mmHg 69%
    03:00 +6°C° 0 mm 1 mps 725 mmHg 69%
    04:00 +6°C° 0 mm 1 mps 725 mmHg 69%
    05:00 +5°C° 0 mm 1 mps 724 mmHg 69%
    06:00 +6°C° 0 mm 1 mps 725 mmHg 68%
    07:00 +6°C° 0 mm 1 mps 725 mmHg 67%
    08:00 +6°C° 0 mm 1 mps 725 mmHg 66%
    09:00 +8°C° 0 mm 1 mps 725 mmHg 59%
    10:00 +10°C° 0 mm 1 mps 725 mmHg 53%
    11:00 +12°C° 0 mm 1 mps 726 mmHg 46%
    12:00 +13°C° 0 mm 1 mps 725 mmHg 42%
    13:00 +14°C° 0 mm 1 mps 725 mmHg 39%
    14:00 +14°C° 0 mm 2 mps 725 mmHg 36%
    15:00 +14°C° 0 mm 1 mps 725 mmHg 38%
    16:00 +13°C° 0 mm 1 mps 725 mmHg 40%
    17:00 +13°C° 0 mm 1 mps 724 mmHg 42%
    18:00 +11°C° 0 mm 1 mps 725 mmHg 45%
    19:00 +10°C° 0 mm 1 mps 725 mmHg 49%
    20:00 +8°C° 0 mm 1 mps 725 mmHg 53%
    21:00 +8°C° 0 mm 1 mps 725 mmHg 55%
    22:00 +7°C° 0 mm 1 mps 726 mmHg 57%
    23:00 +7°C° 0 mm 1 mps 726 mmHg 59%

    21 February, Thursday

    Time Temperature Precipitation Wind Pressure Humidity
    00:00 +6°C° 0 mm 1 mps 726 mmHg 60%
    01:00 +6°C° 0 mm 1 mps 726 mmHg 61%
    02:00 +6°C° 0 mm 1 mps 726 mmHg 62%
    03:00 +5°C° 0 mm 1 mps 726 mmHg 62%
    04:00 +5°C° 0 mm 1 mps 726 mmHg 63%
    05:00 +5°C° 0 mm 1 mps 726 mmHg 64%
    06:00 +5°C° 0 mm 1 mps 726 mmHg 63%
    07:00 +5°C° 0 mm 1 mps 726 mmHg 63%
    08:00 +5°C° 0 mm 1 mps 727 mmHg 63%
    09:00 +7°C° 0 mm 1 mps 727 mmHg 57%
    10:00 +8°C° 0 mm 2 mps 727 mmHg 51%
    11:00 +12°C° 0 mm 2 mps 727 mmHg 45%
    12:00 +12°C° 0 mm 2 mps 726 mmHg 43%
    13:00 +13°C° 0 mm 2 mps 726 mmHg 41%
    14:00 +13°C° 0 mm 2 mps 726 mmHg 39%
    15:00 +13°C° 0 mm 2 mps 726 mmHg 42%
    16:00 +13°C° 0 mm 2 mps 725 mmHg 44%
    17:00 +12°C° 0 mm 2 mps 725 mmHg 47%
    18:00 +10°C° 0 mm 1 mps 725 mmHg 52%
    19:00 +9°C° 0 mm 1 mps 726 mmHg 57%
    20:00 +7°C° 0 mm 1 mps 726 mmHg 62%
    21:00 +7°C° 0 mm 1 mps 726 mmHg 64%
    22:00 +6°C° 0 mm 1 mps 726 mmHg 66%
    23:00 +6°C° 0 mm 1 mps 726 mmHg 67%
    Show more